Weather reports worldwide

Advertisment
Zinnwald-Georgenfeld, Germany (10582): temperature & dewpoint: 10.12.2019 14:00:00 - 16.12.2019 14:00:00 (CET)Zinnwald-Georgenfeld, Germany (10582): temperature 5cm & temperature -5cm: 10.12.2019 14:00:00 - 16.12.2019 14:00:00 (CET)Zinnwald-Georgenfeld, Germany (10582): temperature -20cm & temperature -100cm: 10.12.2019 14:00:00 - 16.12.2019 14:00:00 (CET)Zinnwald-Georgenfeld, Germany (10582): visibility: 10.12.2019 14:00:00 - 16.12.2019 14:00:00 (CET)Zinnwald-Georgenfeld, Germany (10582): sunshine duration: 10.12.2019 14:00:00 - 16.12.2019 14:00:00 (CET)Zinnwald-Georgenfeld, Germany (10582): precipitation: 10.12.2019 14:00:00 - 16.12.2019 14:00:00 (CET)
Date & Time tt [°C] td [°C] tt 5cm [°C] tt -5cm [°C] tt -20cm [°C] tt -100cm [°C] vv [km] sd [min] rr [mm]
16.12.2019 14:00:00 3,4 2,9 2,8 0,0 1,2 4,6 16 48 0,0
16.12.2019 13:00:00 3,0 2,8 2,5 0,0 1,2 4,6 2,7 9 0,0
16.12.2019 12:00:00 4,0 3,4 3,4 0,0 1,2 4,6 72 0 0,0
16.12.2019 11:00:00 2,6 2,5 2,2 0,0 1,2 4,6 0,1 0 0,0
16.12.2019 10:00:00 2,3 2,2 1,7 0,0 1,2 4,6 0,1 0 0,0
16.12.2019 09:00:00 1,7 1,6 1,3 0,0 1,2 4,6 0,1 0 0,2
16.12.2019 08:00:00 1,5 1,5 0,9 0,0 1,2 4,6 0,1 0 0,0
16.12.2019 07:00:00 1,4 1,4 0,9 0,0 1,2 4,6 0,1 0 0,0
16.12.2019 06:00:00 1,2 1,1 0,8 0,0 1,2 4,6 0,1 0 0,0
16.12.2019 05:00:00 1,1 0,6 0,4 0,0 1,2 4,6 15 0 0,0
16.12.2019 04:00:00 1,1 -0,6 -0,1 0,0 1,2 4,6 62 0 0,0
16.12.2019 03:00:00 0,7 -0,2 -0,7 0,0 1,2 4,6 41 0 0,0
16.12.2019 02:00:00 -0,2 -1,7 -2,9 0,0 1,2 4,6 58 0 0,0
16.12.2019 01:00:00 0,8 -0,9 -1,3 0,0 1,2 4,6 64 0 0,0
16.12.2019 00:00:00 1,3 -0,1 -0,6 0,0 1,2 4,6 71 0 0,0
15.12.2019 23:00:00 1,2 0,1 -0,4 0,0 1,1 4,6 64 0 0,0
15.12.2019 22:00:00 1,1 0,2 -0,7 0,0 1,1 4,6 57 0 0,0
15.12.2019 21:00:00 1,9 0,5 0,5 0,0 1,1 4,6 75 0 0,0
15.12.2019 20:00:00 2,0 0,4 0,6 0,0 1,1 4,6 71 0 0,0
15.12.2019 19:00:00 2,2 1,3 0,7 0,0 1,1 4,6 75 0 0,0
15.12.2019 18:00:00 2,5 1,1 0,0 0,0 1,1 4,7 69 0 0,0
15.12.2019 17:00:00 2,7 1,4 0,0 0,0 1,1 4,7 75 0 0,1
15.12.2019 16:00:00 3,0 2,1 0,0 0,0 1,1 4,7 75 0 0,7
15.12.2019 15:00:00 4,4 4,0 0,0 0,0 1,1 4,7 6 0 1,7
15.12.2019 14:00:00 4,1 3,9 0,0 0,1 1,3 4,7 7 0 2,4
15.12.2019 13:00:00 2,8 2,6 0,0 0,1 1,3 4,7 51 0 0,0
15.12.2019 12:00:00 1,8 1,7 0,0 0,1 1,3 4,7 0,7 0 0,0
15.12.2019 11:00:00 0,6 0,5 -0,1 0,1 1,3 4,7 0,3 0 0,1
15.12.2019 10:00:00 0,1 0,0 -0,1 0,1 1,3 4,7 0,1 0 0,7
15.12.2019 09:00:00 -0,1 -0,2 -0,3 0,1 1,3 4,7 0,1 0 0,6
15.12.2019 08:00:00 -0,1 -0,3 -0,3 0,1 1,3 4,7 0,6 0 3,0
15.12.2019 07:00:00 -0,4 -0,6 -0,5 0,1 1,3 4,7 0,2 0 0,7
15.12.2019 06:00:00 -0,6 -0,8 -1,0 0,1 1,3 4,7 3,9 0 0,0
15.12.2019 05:00:00 -1,0 -1,6 -2,1 0,1 1,3 4,7 30 0 0,0
15.12.2019 04:00:00 -1,2 -2,1 -2,3 0,1 1,3 4,8 31 0 0,0
15.12.2019 03:00:00 -1,0 -2,1 -2,4 0,1 1,3 4,8 32 0 0,0
15.12.2019 02:00:00 -1,0 -2,2 -1,8 0,1 1,3 4,8 35 0 0,0
15.12.2019 01:00:00 -0,8 -1,9 -1,3 0,1 1,3 4,8 45 0 0,0
15.12.2019 00:00:00 -0,4 -1,2 -0,1 0,1 1,3 4,8 51 0 0,5
14.12.2019 23:00:00 0,6 -0,4 -0,3 0,1 1,3 4,8 62 0 0,0
14.12.2019 22:00:00 0,1 -0,2 -0,3 0,1 1,3 4,8 62 0 0,0
14.12.2019 21:00:00 0,0 -0,3 -0,3 0,1 1,3 4,8 49 0 0,4
14.12.2019 20:00:00 -0,1 -0,4 -0,4 0,1 1,3 4,8 0,8 0 0,0
14.12.2019 19:00:00 -0,6 -1,3 -1,0 0,1 1,3 4,8 52 0 0,0
14.12.2019 18:00:00 -0,3 -0,8 -0,3 0,1 1,3 4,8 46 0 0,3
14.12.2019 17:00:00 0,0 -0,3 -0,1 0,1 1,3 4,8 60 0 0,0
14.12.2019 16:00:00 0,0 -0,3 0,0 0,1 1,3 4,8 75 0 0,0
14.12.2019 15:00:00 -0,1 -0,4 0,0 0,1 1,3 4,8 68 1 0,0
14.12.2019 14:00:00 0,0 -0,2 0,0 0,1 1,3 4,8 4,6 0 0,8
14.12.2019 13:00:00 0,0 -0,1 -0,1 0,1 1,3 4,8 4,8 0 0,7
14.12.2019 12:00:00 -1,5 -1,8 -1,0 0,1 1,3 4,8 0,5 0 0,8
14.12.2019 11:00:00 -1,3 -1,6 -0,9 0,1 1,3 4,8 0,2 0 0,4
14.12.2019 10:00:00 -1,4 -1,7 -0,8 0,1 1,3 4,8 0,1 0 0,1
14.12.2019 09:00:00 -1,2 -1,5 -0,9 0,1 1,3 4,8 0,1 0 0,0
14.12.2019 08:00:00 -1,1 -1,5 -1,1 0,1 1,3 4,8 21 0 0,0
14.12.2019 07:00:00 -1,2 -1,6 -1,3 0,1 1,3 4,8 46 0 0,0
14.12.2019 06:00:00 -1,4 -2,0 -2,2 0,1 1,3 4,8 65 0 0,0
14.12.2019 05:00:00 -0,6 -0,9 -0,6 0,1 1,3 4,8 75 0 0,0
14.12.2019 04:00:00 -0,5 -0,7 -0,5 0,1 1,3 4,8 3,4 0 0,9
14.12.2019 03:00:00 -0,6 -0,8 -0,7 0,1 1,3 4,8 3,1 0 0,0
14.12.2019 02:00:00 -0,9 -1,2 -0,9 0,1 1,3 4,8 7 0 0,0
14.12.2019 01:00:00 -0,9 -1,2 -0,9 0,1 1,3 4,8 0,6 0 0,0
14.12.2019 00:00:00 -1,0 -1,2 -0,9 0,1 1,4 4,9 0,1 0 0,0
13.12.2019 23:00:00 -1,6 -1,9 -1,5 0,1 1,4 4,9 0,1 0 0,0
13.12.2019 22:00:00 -1,6 -1,9 -1,5 0,0 1,4 4,9 0,8 0 0,0
13.12.2019 21:00:00 -2,0 -2,3 -1,8 0,0 1,4 4,9 0,2 0 0,0
13.12.2019 20:00:00 -3,1 -3,6 -2,6 0,0 1,4 4,9 0,2 0 0,1
13.12.2019 19:00:00 -3,3 -3,9 -2,8 0,0 1,4 4,9 0,1 0 0,2
13.12.2019 18:00:00 -3,2 -3,8 -2,6 0,0 1,4 4,9 0,1 0 0,1
13.12.2019 17:00:00 -3,4 -3,9 -3,0 0,0 1,4 4,9 0,1 0 0,4
13.12.2019 16:00:00 -3,5 -4,1 -3,1 0,0 1,4 4,9 0,1 0 0,5
13.12.2019 15:00:00 -3,4 -4,0 -3,3 0,0 1,4 4,9 0,1 0 0,0
13.12.2019 14:00:00 -3,4 -3,8 -3,3 0,0 1,4 4,9 0,1 0 0,0
13.12.2019 13:00:00 -3,6 -4,0 -3,3 -0,1 1,4 4,9 - 0 0,0
13.12.2019 12:00:00 -3,7 -4,2 -3,5 -0,1 1,4 4,9 0,1 0 0,0
13.12.2019 11:00:00 -3,9 -4,5 -3,8 -0,1 1,4 4,9 0,1 0 0,0
13.12.2019 10:00:00 -4,2 -4,8 -4,0 -0,1 1,4 4,9 0,1 0 0,0
13.12.2019 09:00:00 -4,6 -5,2 -4,3 -0,1 1,4 4,9 0,1 0 0,0
13.12.2019 08:00:00 -4,8 -5,5 -4,8 -0,1 1,4 4,9 - 0 0,0
13.12.2019 07:00:00 -4,8 -5,4 -4,6 -0,1 1,4 4,9 0,1 0 0,0
13.12.2019 06:00:00 -4,6 -5,3 -4,6 -0,1 1,4 4,9 0,1 0 0,0
13.12.2019 05:00:00 -4,2 -4,8 -4,3 0,0 1,4 4,9 0,1 0 0,0
13.12.2019 04:00:00 -4,1 -4,7 -4,1 0,0 1,4 4,9 0,1 0 0,0
13.12.2019 03:00:00 -3,9 -4,5 -3,8 0,0 1,4 4,9 - 0 0,0
13.12.2019 02:00:00 -3,8 -4,4 -3,8 0,0 1,4 4,9 - 0 0,0
13.12.2019 01:00:00 -3,0 -3,5 -3,3 0,0 1,4 4,9 0,1 0 0,0
13.12.2019 00:00:00 -3,4 -3,9 -3,3 0,0 1,4 4,9 0,1 0 0,0
12.12.2019 23:00:00 -3,6 -4,1 -3,5 0,0 1,4 4,9 0,1 0 0,0
12.12.2019 22:00:00 -3,6 -4,1 -3,5 0,0 1,4 4,9 0,1 0 0,0
12.12.2019 21:00:00 -3,4 -3,9 -3,3 0,0 1,4 4,9 0,1 0 0,0
12.12.2019 20:00:00 -3,6 -4,0 -3,3 0,0 1,4 5,0 0,1 0 0,0
12.12.2019 19:00:00 -3,5 -4,0 -3,3 0,0 1,4 5,0 0,1 0 0,0
12.12.2019 18:00:00 -2,2 -2,5 -2,3 0,1 1,4 5,0 0,2 0 0,0
12.12.2019 17:00:00 -2,4 -2,8 -2,3 0,1 1,5 5,0 2,4 0 0,0
12.12.2019 16:00:00 -2,7 -3,3 -3,5 0,1 1,5 5,0 12 8 0,0
12.12.2019 15:00:00 -1,5 -1,9 -1,3 0,1 1,5 5,0 15 3 0,0
12.12.2019 14:00:00 -2,1 -2,9 -2,1 0,1 1,5 5,0 0,5 0 0,0
12.12.2019 13:00:00 -0,7 -1,0 -0,6 0,0 1,5 5,0 20 0 0,0
12.12.2019 12:00:00 -1,0 -1,3 -0,8 0,0 1,5 5,0 32 0 0,0
12.12.2019 11:00:00 -1,6 -1,8 -1,1 0,0 1,5 5,0 19 0 0,0
12.12.2019 10:00:00 -2,4 -3,0 -2,3 0,0 1,5 5,0 3,9 0 0,0
12.12.2019 09:00:00 -2,6 -3,1 -2,3 0,0 1,5 5,0 12 0 0,0
12.12.2019 08:00:00 -3,1 -3,7 -3,0 -0,1 1,5 5,0 11 0 0,0
12.12.2019 07:00:00 -3,7 -4,4 -3,5 -0,1 1,5 5,0 10 0 0,0
12.12.2019 06:00:00 -4,5 -5,3 -4,3 -0,1 1,5 5,0 4,3 0 0,0
12.12.2019 05:00:00 -5,1 -6,0 -5,0 -0,1 1,5 5,0 7 0 0,0
12.12.2019 04:00:00 -5,6 -6,6 -5,3 0,0 1,5 5,0 12 0 0,0
12.12.2019 03:00:00 -5,5 -6,5 -5,3 0,0 1,5 5,0 11 0 0,0
12.12.2019 02:00:00 -5,1 -5,9 -4,8 0,0 1,5 5,0 4,9 0 0,0
12.12.2019 01:00:00 -4,7 -5,4 -4,5 0,0 1,5 5,0 6 0 0,0
12.12.2019 00:00:00 -4,8 -5,5 -4,8 0,0 1,6 5,0 0,1 0 0,0
11.12.2019 23:00:00 -4,5 -5,2 -5,0 0,0 1,6 5,0 4,9 0 0,0
11.12.2019 22:00:00 -4,3 -4,9 -4,5 0,0 1,6 5,0 3,5 0 0,0
11.12.2019 21:00:00 -4,4 -4,9 -4,3 0,0 1,6 5,0 0,1 0 0,0
11.12.2019 20:00:00 -4,4 -4,9 -4,3 0,0 1,6 5,0 0,3 0 0,0
11.12.2019 19:00:00 -4,5 -5,0 -4,6 0,0 1,6 5,0 1,1 0 0,0
11.12.2019 18:00:00 -4,8 -5,3 -5,0 0,1 1,6 5,0 2,4 0 0,0
11.12.2019 17:00:00 -5,1 -5,6 -5,7 0,1 1,6 5,0 5 0 0,0
11.12.2019 16:00:00 -4,7 -6,4 -5,4 0,1 1,6 5,0 26 0 0,0
11.12.2019 15:00:00 -3,4 -6,8 -4,8 0,1 1,6 5,0 50 57 0,0
11.12.2019 14:00:00 -3,1 -5,9 -3,6 0,1 1,6 5,0 40 60 0,0
11.12.2019 13:00:00 -3,0 -5,4 -3,2 0,1 1,7 5,0 31 60 0,0
11.12.2019 12:00:00 -2,4 -5,6 -2,9 0,1 1,7 5,0 47 60 0,0
11.12.2019 11:00:00 -2,9 -5,3 -3,3 0,1 1,7 5,0 46 60 0,0
11.12.2019 10:00:00 -3,4 -5,1 -3,7 0,1 1,7 5,0 40 60 0,0
11.12.2019 09:00:00 -4,1 -5,1 -4,0 0,1 1,7 5,1 25 6 0,0
11.12.2019 08:00:00 -4,6 -5,7 -5,3 0,2 1,7 5,1 29 0 0,0
11.12.2019 07:00:00 -4,4 -4,9 -4,5 0,2 1,7 5,1 0,5 0 0,0
11.12.2019 06:00:00 -4,4 -4,8 -4,3 0,2 1,7 5,1 0,2 0 0,0
11.12.2019 05:00:00 -4,4 -4,9 -4,9 0,2 1,8 5,1 0,9 0 0,0
11.12.2019 04:00:00 -4,1 -4,8 -4,9 0,3 1,8 5,1 12 0 0,0
11.12.2019 03:00:00 -4,1 -4,4 -4,0 0,3 1,8 5,1 0,3 0 0,0
11.12.2019 02:00:00 -4,1 -4,6 -4,5 0,3 1,8 5,1 4,7 0 0,0
11.12.2019 01:00:00 -3,7 -4,0 -3,8 0,3 1,8 5,1 0,4 0 0,0
11.12.2019 00:00:00 -3,7 -5,3 -5,0 0,3 1,8 5,1 28 0 0,0
10.12.2019 23:00:00 -4,0 -5,9 -5,4 0,3 1,8 5,1 40 0 0,0
10.12.2019 22:00:00 -3,7 -6,5 -5,6 0,3 1,9 5,1 50 0 0,0
10.12.2019 21:00:00 -3,4 -5,4 -5,0 0,3 1,9 5,1 42 0 0,0
10.12.2019 20:00:00 -3,2 -4,2 -4,6 0,4 1,9 5,1 32 0 0,0
10.12.2019 19:00:00 -2,6 -3,4 -3,8 0,4 1,9 5,1 26 0 0,0
10.12.2019 18:00:00 -1,8 -2,4 -2,3 0,4 1,9 5,1 12 0 0,0
10.12.2019 17:00:00 -1,4 -1,9 -1,8 0,5 1,9 5,1 14 0 0,0
10.12.2019 16:00:00 -1,3 -2,2 -1,7 0,6 1,9 5,1 22 0 0,0
10.12.2019 15:00:00 -1,2 -2,1 -1,6 0,6 1,9 5,1 22 0 0,0
10.12.2019 14:00:00 -1,2 -2,3 -1,5 0,7 1,9 5,1 24 9 0,0

tt = temperature
td = dewpoint
tt 5cm = temperature 5cm
tt -5cm = temperature -5cm
tt -20cm = temperature -20cm
tt -100cm = temperature -100cm
vv = visibility
sd = sunshine duration
rr = precipitation

Next stations